Weather History for Laramie, WY

Change the Weather History Date:

Friday, December 9, 2011

  Actual Average Record
Temperature  
Mean Temperature 17 °F 21 °F  
Max Temperature 27 °F 32 °F 60 °F (1981)
Min Temperature 6 °F 10 °F -26 °F (1972)
Degree Days  
Heating Degree Days 48 44  
Month to date heating degree days 535 388  
Since 1 July heating degree days 2617 2700  
Cooling Degree Days 0 0  
Month to date cooling degree days 0 0  
Year to date cooling degree days 126 67  
Moisture  
Dew Point 8 °F    
Average Humidity 72    
Maximum Humidity 88    
Minimum Humidity 55    
Precipitation  
Precipitation 0.00 in 0.02 in 0.09 in (1998)
Month to date precipitation 0.06 0.11  
Year to date precipitation 10.42 10.71  
Sea Level Pressure  
Sea Level Pressure 30.33 in    
Wind  
Wind Speed 8 mph (NE)    
Max Wind Speed 25 mph    
Max Gust Speed 29 mph    
Visibility 10 miles    
Events      
T = Trace of Precipitation, MM = Missing Value Source: NWS Daily Summary

Daily Weather History Graph

Daily Weather History Graph

Search for Another Location

Airport:

Trip Planner

Search our weather history database for the weather conditions in past years. The results will help you decide how hot, cold, wet, or windy it might be!

Date:

Astronomy

Dec. 09, 2011 Rise Set
Actual Time 7:16 AM MST 4:33 PM MST
Civil Twilight 6:45 AM MST 5:04 PM MST
Nautical Twilight 6:10 AM MST 5:39 PM MST
Astronomical Twilight 5:37 AM MST 6:12 PM MST
Moon 3:58 PM MST (12/9) 6:26 AM MST (12/9)
Length of Visible Light 10h 18m
Length of Day
9h 16m
Waxing Gibbous, 99% of the Moon is Illuminated
Dec 9
Waxing Gibbous
Dec 10
Full
Dec 17
Last Quarter
Dec 24
New
Dec 31
First Quarter

Hourly Weather History & Observations

Time (MST) Temp. Windchill Dew Point Humidity Pressure Visibility Wind Dir Wind Speed Gust Speed Precip Events Conditions
12:53 AM 19.9 °F 4.3 °F 10.0 °F 65% 30.16 in 10.0 mi West 19.6 mph 25.3 mph N/A   Overcast
1:53 AM 14.0 °F -0.8 °F 5.0 °F 67% 30.22 in 10.0 mi West 13.8 mph - N/A   Clear
2:53 AM 14.0 °F 0.5 °F 3.9 °F 64% 30.24 in 10.0 mi WSW 11.5 mph - N/A   Clear
3:53 AM 14.0 °F 2.9 °F 6.1 °F 71% 30.25 in 10.0 mi West 8.1 mph - N/A   Mostly Cloudy
4:53 AM 15.8 °F 1.4 °F 8.6 °F 73% 30.09 in 10.0 mi WSW 13.8 mph - N/A   Overcast
5:53 AM 18.0 °F 6.1 °F 6.1 °F 60% 30.27 in 10.0 mi NNW 10.4 mph - N/A   Partly Cloudy
6:53 AM 10.9 °F -1.8 °F 5.0 °F 77% 30.32 in 10.0 mi ESE 9.2 mph - N/A   Clear
8:53 AM 12.9 °F 2.6 °F 6.1 °F 74% 30.36 in 10.0 mi ENE 6.9 mph - N/A   Clear
9:53 AM 16.0 °F - 8.1 °F 71% 30.37 in 10.0 mi Calm Calm - N/A   Clear
10:53 AM 21.0 °F 16.2 °F 10.9 °F 65% 30.32 in 10.0 mi Variable 3.5 mph - N/A   Clear
11:53 AM 21.0 °F 12.4 °F 10.9 °F 65% 30.29 in 10.0 mi West 6.9 mph - 0.00 in   Clear
12:53 PM 27.0 °F 17.3 °F 16.0 °F 63% 30.24 in 10.0 mi WSW 10.4 mph - 0.00 in   Clear
1:53 PM 26.1 °F 16.8 °F 12.0 °F 55% 30.30 in 10.0 mi NNE 9.2 mph - N/A   Clear
2:53 PM 25.0 °F 17.1 °F 12.9 °F 60% 30.30 in 10.0 mi NE 6.9 mph - N/A   Clear
3:53 PM 19.9 °F 11.1 °F 10.9 °F 68% 30.35 in 10.0 mi NE 6.9 mph - N/A   Clear
4:53 PM 16.0 °F 7.4 °F 10.0 °F 77% 30.37 in 10.0 mi NE 5.8 mph - N/A   Clear
5:53 PM 12.0 °F 0.5 °F 8.1 °F 84% 30.39 in 10.0 mi NE 8.1 mph - N/A   Clear
6:53 PM 14.0 °F 3.9 °F 8.1 °F 77% 30.42 in 10.0 mi East 6.9 mph - N/A   Clear
7:53 PM 6.1 °F -2.8 °F 3.9 °F 91% 30.48 in 10.0 mi East 4.6 mph - N/A   Clear
8:53 PM 10.0 °F -2.9 °F 5.0 °F 80% 30.46 in 10.0 mi ENE 9.2 mph - N/A   Clear
9:53 PM 10.9 °F 0.2 °F 5.0 °F 77% 30.45 in 10.0 mi ENE 6.9 mph - N/A   Clear
10:53 PM 12.9 °F 2.6 °F 6.1 °F 74% 30.43 in 10.0 mi SE 6.9 mph - N/A   Clear
11:53 PM 10.9 °F 1.4 °F 6.1 °F 81% 30.45 in 10.0 mi East 5.8 mph - N/A   Clear